Weather in Voshchikovo

Russia / Yaroslavl Oblast     58°19′25″N   39°06′08″E
temp.,
°C
wind,
m/s
gust,
m/s
humid.,
%
clouds,
%
prec.,
mm/h
press.,
hPa
HPBL,
m
6 march, sat
sat600:00−14w239418 0.0 101269
03:00−15wnw239854 0.0 101433
06:00−17wnw229830 0.0 101420
09:00−14wnw249751 0.0 1015135
12:00−11w249492 0.0 1015291
15:00−9w249085 0.1 1013342
18:00−12ssw239670 0.0 101232
21:00−13ssw369559 0.0 1010116
7 march, sun
sun700:00−12s4109124 0.0 1006250
03:00−9s6148662 0.0 1002558
06:00−8s71492100 0.3 996807
09:00−6s71394100 1.3 991819
12:00−3s61095100 1.9 988784
15:00−4nw5995100 5.1 987619
18:00−7w61294100 1.6 987676
21:00−7nw61387100 3.0 989794
8 march, mon
mon800:00−8wnw61293100 0.5 989679
03:00−9nw51095100 2.1 991540
06:00−9n4895100 0.9 993549
09:00−11n5992100 1.3 997628
12:00−10n5889100 0.1 1000666
15:00−9nnw5888100 0.2 1004788
18:00−12nnw4991100 0.1 1007486
21:00−16nnw389598 0.1 1010197
9 march, tue
tue900:00−20nnw239925 0.0 101258
03:00−23nnw239819 0.0 101548
06:00−25nnw23980 0.0 101651
09:00−24nnw35950 0.0 1018216
12:00−20nw349540 0.0 1019344
15:00−20nw359554 0.0 1020307
18:00−22nw239860 0.0 102056
21:00−24n229740 0.0 102320
10 march, wed
wed1000:00−26nne11980 0.0 102419
03:00−27ne00970 0.0 102419
06:00−28e11970 0.0 102519
09:00−23ne11950 0.0 102566
12:00−15ne12850 0.0 1026371
15:00−13n118320 0.0 1025550
18:00−19nnw119598 0.0 102520
21:00−21e019799 0.0 102620